Regional Weather Roundup
Issued by NWS

Home | Current Version | Previous Version | Text Only | Print | Product List | Glossary On
Versions: 1 2 3 4 5 6 7 8 9 10 11 12 13 14 15 16 17 18 19 20 21 22 23 24 25 26 27 28 29 30 31 32 33 34 35 36 37 38 39 40 41 42 43 44 45 46 47 48 49 50
356
ASUS43 KOAX 240810
RWRNE

WEATHER ROUNDUP FOR NEBRASKA
NATIONAL WEATHER SERVICE OMAHA NE
300 AM CDT SAT JUN 24 2017

NOTES: SATELLITE DATA IS BEING USED TO AUGMENT CLOUD COVER ABOVE
       12000 FEET.
       "FAIR" INDICATES FEW OR NO CLOUDS BELOW 12,000 FEET WITH NO
       SIGNIFICANT WEATHER AND/OR OBSTRUCTIONS TO VISIBILITY.

  * THESE STATIONS DO NOT REPORT WEATHER SUCH AS RAIN...SNOW OR FOG.

NEZ001>004-019>022-054>056-240900-
NEBRASKA PANHANDLE

CITY           SKY/WX    TMP DP  RH WIND       PRES   REMARKS
SCOTTSBLUFF    CLOUDY    55  37  50 CALM      30.31R
ALLIANCE       CLOUDY    48  42  80 W3        30.29S
CHADRON        CLEAR     42  36  79 SW5       30.28S
GORDON         FAIR      41  36  82 NW5       30.27S
KIMBALL        CLOUDY    53  41  63 N3        30.33F
SIDNEY         CLOUDY    54  36  50 NE7       30.31S
$$

NEZ057>060-069>072-079>082-240900-
SOUTHWEST NEBRASKA

CITY           SKY/WX    TMP DP  RH WIND       PRES   REMARKS
NORTH PLATTE   PTCLDY    45  39  79 SW3       30.26R
IMPERIAL       MOCLDY    49  42  77 NE3       30.27R
LEXINGTON      CLEAR     47  43  86 W7        30.24R
MCCOOK         PTCLDY    50  46  86 W5        30.24S
OGALLALA       CLOUDY    54  44  67 CALM      30.28R
$$

NEZ005>010-023>029-035>040-094-240900-
NORTH CENTRAL NEBRASKA

CITY           SKY/WX    TMP DP  RH WIND       PRES   REMARKS
VALENTINE      PTCLDY    43  30  60 SW7       30.22R
AINSWORTH      PTCLDY    46  38  72 W7        30.22R
BROKEN BOW     CLEAR     46  39  76 CALM      30.22S
O`NEILL        CLEAR     47  39  74 W6        30.19R
ORD            CLEAR     44  37  76 SW5       30.20R
THEDFORD       CLEAR     46  36  68 W5        30.26S
$$

NEZ041-046>049-061>064-073>077-083>087-240900-
SOUTH CENTRAL NEBRASKA

CITY           SKY/WX    TMP DP  RH WIND       PRES   REMARKS
GRAND ISLAND   CLEAR     51  45  79 W5        30.20S
AURORA         CLEAR     48  44  84 NW5       30.20R
HASTINGS       CLEAR     54  44  69 W3        30.22R
HEBRON         CLEAR     54  49  84 CALM      30.19R
HOLDREGE       CLEAR     53  44  72 NW5       30.23R
KEARNEY *      CLEAR     52  43  71 NW7       30.23R
YORK           CLEAR     52  45  76 NW6       30.19R
$$

NEZ011>018-030>034-042>045-240900-
NORTHEAST NEBRASKA

CITY           SKY/WX    TMP DP  RH WIND       PRES   REMARKS
NORFOLK        CLEAR     49  38  65 CALM      30.16R
ALBION         CLEAR     45  38  78 NW5       30.18S
BLAIR          PTCLDY    55  43  65 NW3       30.14R
FREMONT        PTCLDY    52  45  75 CALM      30.15F
TEKAMAH        CLEAR     54  42  64 W7        30.13S
WAYNE          CLEAR     46  42  86 S3        30.15S
$$

NEZ050>053-065>068-078-088>093-240900-
SOUTHEAST NEBRASKA

CITY           SKY/WX    TMP DP  RH WIND       PRES   REMARKS
LINCOLN        CLEAR     52  49  89 NW3       30.17R
OMAHA EPPLEY   PTCLDY    55  48  77 N3        30.13S
BEATRICE       CLEAR     53  50  89 W3        30.16R
FALLS CITY     CLEAR     56  52  86 NW7       30.12R
NEBRASKA CITY  CLEAR     58  49  70 NW8       30.14R
PLATTSMOUTH    CLEAR     55  48  75 NW6       30.14R
$$

NEZ044-045-051>053-067-240900-
OMAHA AREA

CITY           SKY/WX    TMP DP  RH WIND       PRES   REMARKS
OMAHA EPPLEY   PTCLDY    55  48  77 N3        30.13S
BLAIR          PTCLDY    55  43  65 NW3       30.14R
FREMONT        PTCLDY    52  45  75 CALM      30.15F
MILLARD        PTCLDY    59  47  64 NW3       30.14S
OFFUTT AFB     CLEAR     53  46  78 NW9       30.13R
PLATTSMOUTH    CLEAR     55  48  75 NW6       30.14R
WAHOO          FAIR      55  40  58 NW6       30.15S
$$




USA.gov is the U.S. government's official web portal to all federal, state and local government web resources and services.